Regional Weather Roundup
Issued by NWS

Home | Current Version | Previous Version | Graphics & Text | Print | Product List | Glossary On
Versions: 1 2 3 4 5 6 7 8 9 10 11 12 13 14 15 16 17 18 19 20 21 22 23 24 25 26 27 28 29 30 31 32 33 34 35 36 37 38 39 40 41 42 43 44 45 46 47 48 49 50
000
ASUS43 KMKX 102000
RWRWI

WISCONSIN REGIONAL WEATHER ROUNDUP
NATIONAL WEATHER SERVICE MILWAUKEE/SULLIVAN WI
200 PM CST SUN DEC 10 2017

NOTE: "FAIR" INDICATES FEW OR NO CLOUDS BELOW 12,000 FEET WITH NO
SIGNIFICANT WEATHER AND/OR OBSTRUCTIONS TO VISIBILITY.

WIZ001-002-006>008-014>016-023>028-102100-
NORTHWEST WISCONSIN

CITY           SKY/WX    TMP DP  RH WIND       PRES   REMARKS
SUPERIOR ARPT  CLOUDY    24  14  66 W10       30.01S WCI  14
ASHLAND        CLOUDY    20  12  71 N8        30.00R WCI  10
HAYWARD        CLOUDY    22  14  71 MISG      29.97R
SIREN          CLOUDY    26  16  66 N8        29.98S WCI  17
CUMBERLAND     CLOUDY    23  14  68 NW8       29.97R WCI  14
RICE LAKE      CLOUDY    26  18  72 CALM      29.99R
CHETEK         CLOUDY    25  18  73 NW5       29.97R WCI  20
LADYSMITH      CLOUDY    24  18  79 NW9       29.97R WCI  14
EAU CLAIRE     NOT AVBL
MENOMONIE      CLOUDY    28  19  69 W8        29.99S WCI  20
NEW RICHMOND   PTSUNNY   28  19  69 NW7       29.99S WCI  21
OSCEOLA        CLOUDY    29  20  69 NW9       30.02F WCI  20
$$

WIZ003>005-009-010-017-018-102100-
NORTH CENTRAL WISCONSIN

CITY           SKY/WX    TMP DP  RH WIND       PRES   REMARKS
MANITOWISH WTR CLOUDY    19  18  96 N6        29.88S WCI  10
ARBOR VITAE    FLURRIES  22  19  87 N12       29.87S WCI  10
WOODRUFF       FLURRIES  22  19  87 N12       29.87S WCI  10
RHINELANDER    CLOUDY    21  17  84 N8        29.87S WCI  11
EAGLE RIVER    LGT SNOW  19  14  82 N9        29.86S WCI   8
LAND O LAKES   LGT SNOW  18  15  88 N9        29.89R WCI   7
PHILLIPS       FLURRIES  19  16  86 N7        29.91R WCI  10
TOMAHAWK       CLOUDY    21  16  79 NW8       29.90R WCI  12
MEDFORD        CLOUDY    21  17  83 NW9       29.89F WCI  11
MERRILL        CLOUDY    23  18  81 N8        29.90S WCI  13
$$

WIZ029-030-035-036-043>047-102100-
CENTRAL WISCONSIN

CITY           SKY/WX    TMP DP  RH WIND       PRES   REMARKS
WAUSAU         CLOUDY    23  17  78 NW12      29.89S WCI  12
MOSINEE        CLOUDY    23  19  86 NW12      29.91S WCI  12
MARSHFIELD     CLOUDY    24  18  77 NW10      29.91S WCI  14
STEVENS POINT  CLOUDY    23  17  79 NW7       29.92R WCI  15
WAUPACA        CLOUDY    28  19  71 NW7       29.93S WCI  20
WAUTOMA        CLOUDY    26  19  74 NW6       29.94R WCI  19
WISC RAPIDS    CLOUDY    25  18  74 NW13      29.94R WCI  14
CAMP DOUGLAS   NOT AVBL
$$

WIZ011>013-019>022-031-037>040-048>050-102100-
NORTHEAST WISCONSIN

CITY           SKY/WX    TMP DP  RH WIND       PRES   REMARKS
ANTIGO         LGT SNOW  21  18  86 NW9       29.87R WCI  11
SHAWANO        CLOUDY    28  20  70 CALM      29.90S
OCONTO         CLOUDY    26  16  67 NW7       29.89S WCI  18
STURGEON BAY   MOSUNNY   27  17  66 NW13G22   29.88R WCI  16
GREEN BAY      CLOUDY    26  19  74 NW14      29.91R WCI  14
MANITOWOC      CLOUDY    25  18  74 NW15      29.90R WCI  13
APPLETON       PTSUNNY   25  16  68 NW9       29.88S WCI  15
CLINTONVILLE   CLOUDY    25  18  74 NW7       29.90S WCI  17
OSHKOSH        CLOUDY    26  19  74 NW9       29.90S WCI  17
$$

WIZ032>034-041-042-053>061-102100-
SOUTHWEST WISCONSIN

CITY           SKY/WX    TMP DP  RH WIND       PRES   REMARKS
LA CROSSE      CLOUDY    30  21  69 NW9       30.00R WCI  22
SPARTA         CLOUDY    28  21  76 W6        29.97S WCI  21
VIROQUA        CLOUDY    27  23  84 NW9       29.94R WCI  18
BOSCOBEL       CLOUDY    31  21  66 NW6       29.98R WCI  25
PRAIRIE DU CHI CLOUDY    32  21  64 NW8       29.97F WCI  24
PLATTEVILLE    CLOUDY    31  25  78 NW12      29.94S WCI  22
$$

WIZ056-057-062-063-064-067-068-102100-
SOUTH CENTRAL WISCONSIN

CITY           SKY/WX    TMP DP  RH WIND       PRES   REMARKS
REEDSBURG      CLOUDY    29  20  68 NW7       29.93R WCI  22
BARABOO/DELLS  CLOUDY    28  19  67 NW12      29.92S WCI  18
LONE ROCK      CLOUDY    30  21  69 NW12      29.96R WCI  20
MINERAL POINT  CLOUDY    32  27  80 NW8       29.92S WCI  25
MADISON        CLOUDY    29  19  66 NW9       29.92R WCI  20
MIDDLETON      CLOUDY    31  22  67 NW12      29.91F WCI  22
WATERTOWN      CLOUDY    27  22  80 NW9       29.92R WCI  18
MONROE         CLOUDY    30  21  69 NW13G20   29.91S WCI  20
JANESVILLE     CLOUDY    34  21  60 NW13      29.91R WCI  25
$$

WIZ051-052-058>065-066-070>072-102100-
SOUTHEAST WISCONSIN

CITY           SKY/WX    TMP DP  RH WIND       PRES   REMARKS
MILWAUKEE      CLOUDY    28  20  71 NW12      29.90R WCI  18
WAUKESHA       CLOUDY    25  18  74 NW12      29.91R WCI  14
MILWAUKEE/TIMM CLOUDY    27  18  69 NW12      29.91R WCI  16
RACINE         CLOUDY    28  20  71 NW10      29.91R WCI  19
BURLINGTON     CLOUDY    37  32  84 NW7       29.90R WCI  31
KENOSHA        CLOUDY    29  19  66 NW13      29.90R WCI  19
FOND DU LAC    CLOUDY    26  17  68 N10       29.91S WCI  16
SHEBOYGAN      CLOUDY    25  19  78 NW12      29.90R WCI  14
WEST BEND      CLOUDY    27  19  74 NW13      29.90R WCI  16
JUNEAU         CLOUDY    26  19  76 NW9       29.92R WCI  16
$$

LSZ147-162-102100-
LAKE SUPERIOR

STATION/POSITION TIME  TEMP    WIND        PRES    WAVE
                       AIR SEA DIR/SP/G            HT/PER
                 (UTC) (F)     (DEG/KT/KT) (MB)    (FT/S)
DEVILS ISLAND    1900   20     340/ 10/ 13 1016.9R
SAXON HARBOR     1940   23                 1014.9R
$$

LMZ867-665-643>646-102100-
LAKE MICHIGAN

STATION/POSITION TIME  TEMP    WIND        PRES    WAVE
                       AIR SEA DIR/SP/G            HT/PER
                 (UTC) (F)     (DEG/KT/KT) (MB)    (FT/S)
NORTHPORT PIER   1940   28     330/ 18/ 21 1011.2S
KEWAUNEE LAKESHO 1930   25     320/  6/  9 1011.2R
SHEBOYGAN LAKESH 1900   24     320/ 14/ 16 1013.2R
PORT WASHINGTON  1940   27     300/  8/ 14 1013.9R
MILWAUKEE LAKESH 1930   27     310/  8/ 10   N/A
KENOSHA   LAKESH 1900   27     280/ 12/ 15 1011.9
$$

TC  - TEMPERATURE IN CELSIUS
VSB - VISIBILITY IN STATUTE MILES
WCI - WIND CHILL INDEX
HX  - HEAT INDEX





USA.gov is the U.S. government's official web portal to all federal, state and local government web resources and services.